• In Hungary
  • List of Countries
  • For 7 days
  • Water Temperature
  • Satellite Maps
  • Weather Map
  • News
  • Weather Widgets
  • user-avatar
    Login

    Hourly Weather Multan

    Today, 19 August, Saturday

    Time Temperature Precipitation Wind Pressure Humidity
    00:00 +37°C° 0 mm 3 mps 740 mmHg 27%
    01:00 +37°C° 0 mm 3 mps 740 mmHg 27%
    02:00 +37°C° 0 mm 3 mps 740 mmHg 27%
    03:00 +36°C° 0 mm 3 mps 740 mmHg 27%
    04:00 +36°C° 0 mm 3 mps 740 mmHg 28%
    05:00 +35°C° 0 mm 2 mps 739 mmHg 29%
    06:00 +37°C° 0 mm 3 mps 740 mmHg 28%
    07:00 +38°C° 0 mm 3 mps 740 mmHg 26%
    08:00 +41°C° 0 mm 4 mps 741 mmHg 25%
    09:00 +43°C° 0 mm 4 mps 741 mmHg 22%
    10:00 +44°C° 0 mm 4 mps 741 mmHg 19%
    11:00 +47°C° 0 mm 4 mps 741 mmHg 17%
    12:00 +47°C° 0 mm 3 mps 740 mmHg 15%
    13:00 +48°C° 0 mm 2 mps 740 mmHg 14%
    14:00 +48°C° 0 mm 2 mps 739 mmHg 12%
    15:00 +48°C° 0 mm 2 mps 739 mmHg 12%
    16:00 +48°C° 0 mm 2 mps 738 mmHg 12%
    17:00 +47°C° 0 mm 1 mps 738 mmHg 11%
    18:00 +47°C° 0 mm 2 mps 738 mmHg 13%
    19:00 +45°C° 0 mm 2 mps 738 mmHg 15%
    20:00 +42°C° 0 mm 2 mps 738 mmHg 16%
    21:00 +42°C° 0 mm 3 mps 739 mmHg 17%
    22:00 +40°C° 0 mm 3 mps 739 mmHg 18%
    23:00 +40°C° 0 mm 3 mps 739 mmHg 20%

    Tomorrow, 20 August, Sunday

    Time Temperature Precipitation Wind Pressure Humidity
    00:00 +39°C° 0 mm 3 mps 739 mmHg 21%
    01:00 +39°C° 0 mm 3 mps 739 mmHg 22%
    02:00 +38°C° 0 mm 4 mps 739 mmHg 24%
    03:00 +37°C° 0 mm 3 mps 739 mmHg 25%
    04:00 +37°C° 0 mm 3 mps 739 mmHg 27%
    05:00 +36°C° 0 mm 2 mps 739 mmHg 29%
    06:00 +38°C° 0 mm 3 mps 740 mmHg 27%
    07:00 +39°C° 0 mm 3 mps 740 mmHg 26%
    08:00 +40°C° 0 mm 3 mps 741 mmHg 24%
    09:00 +43°C° 0 mm 3 mps 740 mmHg 21%
    10:00 +46°C° 0 mm 2 mps 740 mmHg 18%
    11:00 +48°C° 0 mm 2 mps 740 mmHg 15%
    12:00 +48°C° 0 mm 2 mps 740 mmHg 14%
    13:00 +50°C° 0 mm 3 mps 739 mmHg 13%
    14:00 +51°C° 0 mm 3 mps 738 mmHg 12%
    15:00 +50°C° 0 mm 3 mps 738 mmHg 13%
    16:00 +50°C° 0 mm 3 mps 738 mmHg 13%
    17:00 +50°C° 0 mm 3 mps 737 mmHg 14%
    18:00 +47°C° 0 mm 3 mps 737 mmHg 16%
    19:00 +46°C° 0 mm 3 mps 737 mmHg 18%
    20:00 +44°C° 0 mm 3 mps 738 mmHg 20%
    21:00 +43°C° 0 mm 3 mps 738 mmHg 22%
    22:00 +42°C° 0 mm 3 mps 738 mmHg 24%
    23:00 +42°C° 0 mm 3 mps 738 mmHg 25%

    Day after tomorrow, 21 August, Monday

    Time Temperature Precipitation Wind Pressure Humidity
    00:00 +40°C° 0 mm 3 mps 738 mmHg 27%
    01:00 +40°C° 0 mm 3 mps 738 mmHg 29%
    02:00 +39°C° 0 mm 3 mps 738 mmHg 31%
    03:00 +39°C° 0 mm 3 mps 738 mmHg 34%
    04:00 +38°C° 0 mm 3 mps 738 mmHg 36%
    05:00 +38°C° 0 mm 4 mps 738 mmHg 39%
    06:00 +40°C° 0 mm 4 mps 738 mmHg 39%
    07:00 +41°C° 0 mm 5 mps 739 mmHg 38%
    08:00 +42°C° 0 mm 6 mps 739 mmHg 38%
    09:00 +45°C° 0 mm 5 mps 739 mmHg 33%
    10:00 +46°C° 0 mm 5 mps 739 mmHg 29%
    11:00 +48°C° 0 mm 4 mps 739 mmHg 25%
    12:00 +48°C° 0 mm 4 mps 739 mmHg 24%
    13:00 +48°C° 0 mm 4 mps 738 mmHg 23%
    14:00 +47°C° 0 mm 3 mps 737 mmHg 22%
    15:00 +47°C° 0 mm 3 mps 737 mmHg 22%
    16:00 +48°C° 0 mm 4 mps 736 mmHg 22%
    17:00 +48°C° 0 mm 4 mps 736 mmHg 22%
    18:00 +47°C° 0 mm 4 mps 736 mmHg 24%
    19:00 +45°C° 0 mm 4 mps 736 mmHg 26%
    20:00 +43°C° 0 mm 4 mps 737 mmHg 28%
    21:00 +43°C° 0 mm 4 mps 737 mmHg 30%
    22:00 +42°C° 0 mm 4 mps 737 mmHg 31%
    23:00 +42°C° 0 mm 5 mps 737 mmHg 32%

    22 August, Tuesday

    Time Temperature Precipitation Wind Pressure Humidity
    00:00 +41°C° 0 mm 4 mps 737 mmHg 33%
    01:00 +40°C° 0 mm 3 mps 737 mmHg 34%
    02:00 +39°C° 0 mm 3 mps 737 mmHg 36%
    03:00 +39°C° 0 mm 3 mps 737 mmHg 36%
    04:00 +39°C° 0 mm 3 mps 737 mmHg 37%
    05:00 +38°C° 0 mm 3 mps 737 mmHg 37%
    06:00 +40°C° 0 mm 4 mps 738 mmHg 36%
    07:00 +42°C° 0 mm 4 mps 738 mmHg 34%
    08:00 +43°C° 0 mm 5 mps 739 mmHg 32%
    09:00 +44°C° 0 mm 4 mps 739 mmHg 30%
    10:00 +47°C° 0 mm 4 mps 739 mmHg 27%
    11:00 +47°C° 0 mm 3 mps 739 mmHg 24%
    12:00 +47°C° 0 mm 3 mps 738 mmHg 24%
    13:00 +47°C° 0 mm 3 mps 738 mmHg 24%
    14:00 +46°C° 0 mm 3 mps 737 mmHg 25%
    15:00 +46°C° 0 mm 3 mps 737 mmHg 25%
    16:00 +47°C° 0 mm 4 mps 737 mmHg 25%
    17:00 +48°C° 0 mm 4 mps 737 mmHg 25%
    18:00 +45°C° 0 mm 4 mps 737 mmHg 27%
    19:00 +44°C° 0 mm 4 mps 737 mmHg 30%
    20:00 +43°C° 0 mm 4 mps 737 mmHg 32%
    21:00 +42°C° 0 mm 4 mps 738 mmHg 34%
    22:00 +42°C° 0 mm 4 mps 738 mmHg 35%
    23:00 +40°C° 0 mm 3 mps 738 mmHg 36%

    23 August, Wednesday

    Time Temperature Precipitation Wind Pressure Humidity
    00:00 +39°C° 0.2 mm 3 mps 738 mmHg 38%
    01:00 +39°C° 0.2 mm 3 mps 738 mmHg 40%
    02:00 +38°C° 0.2 mm 3 mps 738 mmHg 41%
    03:00 +37°C° 0.2 mm 3 mps 738 mmHg 43%
    04:00 +37°C° 0.2 mm 3 mps 738 mmHg 45%
    05:00 +37°C° 0.2 mm 3 mps 739 mmHg 46%
    06:00 +38°C° 0 mm 3 mps 739 mmHg 43%
    07:00 +39°C° 0 mm 3 mps 740 mmHg 39%
    08:00 +42°C° 0 mm 3 mps 740 mmHg 36%
    09:00 +44°C° 0 mm 3 mps 740 mmHg 32%
    10:00 +45°C° 0 mm 3 mps 740 mmHg 28%
    11:00 +47°C° 0 mm 2 mps 740 mmHg 24%
    12:00 +47°C° 0 mm 2 mps 740 mmHg 23%
    13:00 +47°C° 0 mm 2 mps 739 mmHg 22%
    14:00 +48°C° 0 mm 2 mps 739 mmHg 21%
    15:00 +47°C° 0 mm 3 mps 738 mmHg 22%
    16:00 +47°C° 0 mm 3 mps 738 mmHg 23%
    17:00 +48°C° 0 mm 4 mps 738 mmHg 23%
    18:00 +47°C° 0 mm 4 mps 738 mmHg 25%
    19:00 +44°C° 0 mm 4 mps 739 mmHg 27%
    20:00 +43°C° 0 mm 4 mps 739 mmHg 29%
    21:00 +42°C° 0 mm 4 mps 739 mmHg 31%
    22:00 +42°C° 0 mm 4 mps 739 mmHg 32%
    23:00 +41°C° 0 mm 4 mps 739 mmHg 33%

    24 August, Thursday

    Time Temperature Precipitation Wind Pressure Humidity
    00:00 +40°C° 0.1 mm 3 mps 739 mmHg 34%
    01:00 +39°C° 0.1 mm 3 mps 739 mmHg 35%
    02:00 +39°C° 0.1 mm 3 mps 739 mmHg 36%
    03:00 +38°C° 0.2 mm 3 mps 739 mmHg 38%
    04:00 +38°C° 0.2 mm 3 mps 739 mmHg 40%
    05:00 +37°C° 0.2 mm 2 mps 739 mmHg 42%
    06:00 +39°C° 0 mm 3 mps 739 mmHg 39%
    07:00 +40°C° 0 mm 3 mps 740 mmHg 37%
    08:00 +42°C° 0 mm 4 mps 740 mmHg 34%
    09:00 +44°C° 0 mm 4 mps 740 mmHg 30%
    10:00 +47°C° 0 mm 4 mps 740 mmHg 27%
    11:00 +48°C° 0 mm 4 mps 740 mmHg 23%
    12:00 +48°C° 0 mm 3 mps 740 mmHg 22%
    13:00 +48°C° 0 mm 3 mps 739 mmHg 22%
    14:00 +48°C° 0 mm 3 mps 738 mmHg 21%
    15:00 +47°C° 0 mm 3 mps 738 mmHg 22%
    16:00 +48°C° 0 mm 4 mps 738 mmHg 23%
    17:00 +47°C° 0 mm 4 mps 738 mmHg 24%
    18:00 +46°C° 0.2 mm 5 mps 738 mmHg 28%
    19:00 +43°C° 0.2 mm 5 mps 738 mmHg 31%
    20:00 +41°C° 0.2 mm 5 mps 738 mmHg 35%
    21:00 +41°C° 0.2 mm 4 mps 738 mmHg 36%
    22:00 +40°C° 0.2 mm 4 mps 738 mmHg 37%
    23:00 +39°C° 0.2 mm 3 mps 738 mmHg 38%
    Show more